[[[{"header":{"parameterUnit":"kt","parameterCategory":2,"dx":1,"dy":1,"la1":30.253999710083008,"la2":30.299108505249023,"lo1":-89.0895004272461,"lo2":-89.04439544677734,"nx":28,"ny":28,"refTime":"2022-10-13T21:00:00:Z","depth":0,"parameterNumber":1,"parameterNumberName":"U-component_of_WINDS"},"data":[1.3724,1.3815,1.3844,1.3963,1.401,1.4096,1.4137,1.4193,1.4246,1.4354,1.4423,1.4464,1.4531,1.4621,1.4698,1.4715,1.4745,1.4755,1.4774,1.47,1.4692,1.4685,1.4664,1.4761,1.4761,1.4845,1.4845,1.4846,1.3666,1.3713,1.3784,1.3874,1.3935,1.3943,1.4016,1.4068,1.4146,1.4212,1.4281,1.438,1.4463,1.4528,1.4613,1.4659,1.4668,1.4679,1.4676,1.4687,1.461,1.4588,1.467,1.467,1.467,1.467,1.467,1.467,1.357,1.3623,1.3694,1.3772,1.3826,1.3886,1.3943,1.3991,1.4063,1.4154,1.4178,1.4268,1.4342,1.4461,1.4509,1.4581,1.4575,1.4598,1.4603,1.4608,1.4609,1.4483,1.4598,1.4598,1.4598,1.4598,1.4597,0,1.3508,1.3529,1.36,1.3679,1.3738,1.3803,1.3868,1.3905,1.3962,1.402,1.4105,1.416,1.427,1.4355,1.4443,1.4489,1.4506,1.4512,1.4527,1.4516,1.4494,1.4506,1.4379,1.4508,1.4507,1.4507,1.4507,1.4506,1.3413,1.3472,1.3561,1.3607,1.3649,1.3723,1.3773,1.382,1.3871,1.396,1.4006,1.4092,1.4163,1.4298,1.4357,1.444,1.4449,1.4494,1.4462,1.4448,1.4449,1.4445,1.4451,1.45,1.4501,1.4501,1.4502,0,1.3356,1.3405,1.3506,1.359,1.3613,1.3673,1.3745,1.3802,1.3844,1.3928,1.3951,1.4017,1.4102,1.4154,1.4262,1.4287,1.439,1.4397,1.4364,1.4368,1.4414,1.4409,1.4555,1.4577,1.4477,1.4478,1.4479,0,1.3294,1.337,1.3438,1.3495,1.3582,1.3626,1.3711,1.3755,1.3819,1.3885,1.3911,1.3974,1.4031,1.4102,1.4139,1.4232,1.4253,1.4278,1.4287,1.4275,1.4272,1.4305,1.43,1.4305,1.4304,1.4303,1.4303,0,1.3199,1.3326,1.3418,1.3455,1.3552,1.3595,1.3638,1.3709,1.3759,1.3832,1.3865,1.3948,1.3993,1.4058,1.4104,1.4079,1.422,1.4196,1.4245,1.4244,1.4274,1.4271,1.4387,1.4302,1.4302,1.4301,1.4301,0,1.3156,1.3226,1.3353,1.3434,1.3466,1.3527,1.361,1.3675,1.3749,1.3775,1.3833,1.3857,1.3943,1.3916,1.4035,1.399,1.4034,1.4066,1.407,1.4081,1.4049,1.4107,1.4212,1.4225,1.4091,1.4089,1.4088,0,1.3035,1.3175,1.3213,1.3333,1.3405,1.3428,1.3497,1.3562,1.3603,1.3671,1.3718,1.3796,1.3787,1.3819,1.3871,1.3923,1.3981,1.3917,1.4017,1.4021,1.3996,1.4093,1.4096,1.4183,1.4066,1.4069,1.407,0,1.2947,1.3063,1.3081,1.3125,1.3216,1.3277,1.3357,1.3443,1.3486,1.3557,1.3625,1.3738,1.3735,1.3788,1.3817,1.3869,1.3943,1.3859,1.3862,1.3873,1.406,1.4061,1.4076,1.3951,1.3954,1.3956,1.4053,0,1.287,1.2947,1.2999,1.3095,1.315,1.3228,1.3281,1.3332,1.3352,1.3394,1.3497,1.3565,1.3656,1.3686,1.3708,1.381,1.3801,1.3798,1.3776,1.3839,1.3872,1.3886,1.3721,1.3721,1.3721,1.372,0,0,1.2742,1.2852,1.2892,1.297,1.3018,1.3041,1.312,1.3171,1.3273,1.3307,1.3295,1.3462,1.3519,1.3639,1.3663,1.37,1.3724,1.3699,1.3808,1.3818,1.3827,1.3861,1.3875,1.372,1.372,1.372,1.372,0,1.2724,1.2777,1.2853,1.2907,1.2988,1.3027,1.3045,1.313,1.3161,1.3261,1.3281,1.3349,1.3483,1.354,1.3587,1.3686,1.3698,1.371,1.3744,1.3804,1.3813,1.3822,1.3858,1.387,1.3719,1.3719,1.3719,0,1.2647,1.2708,1.275,1.2861,1.2914,1.2988,1.2977,1.3056,1.3112,1.3136,1.3235,1.3281,1.3362,1.3468,1.3518,1.3509,1.3671,1.363,1.3633,1.364,1.3701,1.3712,1.3723,1.3584,1.3583,1.3582,0,0,1.2625,1.2696,1.2776,1.2861,1.2893,1.2953,1.2998,1.3024,1.3094,1.3123,1.3181,1.3251,1.333,1.338,1.3457,1.3566,1.3587,1.3611,1.3617,1.3622,1.3632,1.3693,1.3705,1.358,1.358,1.358,0,0,1.2615,1.271,1.2718,1.2823,1.2888,1.2974,1.3025,1.3037,1.3111,1.3108,1.3157,1.3178,1.3278,1.3323,1.3281,1.345,1.3427,1.3438,1.3417,1.3426,1.3432,1.342,1.328,0,0,0,0,0,1.2624,1.2698,1.2704,1.2729,1.2871,1.297,1.2989,1.303,1.3011,1.3051,1.3102,1.3111,1.331,1.3274,1.33,1.3347,1.3545,1.3551,1.3557,1.3556,1.3565,1.3572,0,0,0,0,0,0,1.2634,1.2665,1.2702,1.2791,1.2823,1.2968,1.2946,1.296,1.3008,1.3008,1.3101,1.3114,1.3152,1.3264,1.3286,1.333,1.3273,1.3548,1.3553,1.3558,1.3559,1.3566,1.3572,0,0,0,0,0,1.2643,1.2667,1.2883,1.279,1.2818,1.2889,1.2944,1.2955,1.2993,1.3073,1.3086,1.3019,1.3152,1.3175,1.3277,1.3319,1.3257,1.3266,1.3551,1.3555,1.3559,1.3563,0,0,0,0,0,0,1.2649,1.2679,1.289,1.29,1.2764,1.2882,1.2902,1.295,1.3056,1.307,1.2993,1.2992,1.3154,1.317,1.3187,1.3312,1.3245,1.3253,1.3259,1.3554,1.3557,1.356,0,0,0,0,0,0,1.2666,1.2687,1.2895,1.286,1.2867,1.2875,1.2893,1.2987,1.3057,1.2971,1.2973,1.2992,1.3129,1.3168,1.3181,1.3326,1.3235,1.3243,1.3249,1.3253,1.3557,1.3559,0,0,0,0,0,0,1.2676,1.2694,1.2858,1.2863,1.2869,1.2986,1.2959,1.3103,1.3024,1.2966,1.3019,1.3016,1.3127,1.3141,1.3177,1.3316,1.3323,1.3236,1.3241,1.3245,1.3248,0,0,0,0,0,0,0,1.2684,1.255,1.2829,1.2865,1.287,1.2993,1.2996,1.2999,1.3024,1.3021,1.3019,1.3017,1.3189,1.3198,1.3207,1.3308,0,0,1.3235,1.3239,0,0,0,0,0,0,0,0,1.2543,1.2548,1.2829,1.2831,1.2834,1.2994,1.2996,1.2998,1.3023,1.3022,1.302,1.3018,1.3192,1.3199,1.3206,0,0,0,0,0,0,0,0,0,0,0,0,0,0,0,1.283,1.2831,0,1.2994,1.2996,1.2998,1.3023,1.3022,1.302,1.3019,1.3194,1.32,1.3206,0,0,0,0,0,0,0,0,0,0,0,0,0,0,0,0,0,0,0,0,0,0,0,0,0,0,0,0,0,0,0,0,0,0,0,0,0,0,0,0,0,0,0,0,0,0,0,0,0,0,0,0,0,0,0,0,0,0,0,0,0,0,0,0,0,0,0,0,0]}],[{"header":{"parameterUnit":"kt","parameterCategory":2,"dx":1,"dy":1,"la1":30.253999710083008,"la2":30.299108505249023,"lo1":-89.0895004272461,"lo2":-89.04439544677734,"nx":28,"ny":28,"refTime":"2022-10-13T21:00:00:Z","depth":0,"parameterNumber":2,"parameterNumberName":"V-component_of_WINDS"},"data":[-0.9298,-0.9113,-0.9135,-0.8933,-0.8918,-0.8784,-0.8742,-0.8691,-0.8654,-0.8495,-0.8407,-0.8407,-0.8377,-0.8275,-0.818,-0.8182,-0.814,-0.8063,-0.8078,-0.841,-0.8457,-0.8502,-0.855,-0.8053,-0.8052,-0.7733,-0.773,-0.7728,-0.9551,-0.9536,-0.9434,-0.9349,-0.9263,-0.9354,-0.9292,-0.9214,-0.9089,-0.9041,-0.8954,-0.8814,-0.8704,-0.8699,-0.8597,-0.851,-0.8545,-0.8481,-0.8489,-0.8483,-0.8838,-0.8888,-0.8455,-0.8455,-0.8456,-0.8456,-0.8456,-0.8456,-1.0019,-0.9905,-0.9867,-0.9756,-0.9719,-0.9661,-0.9556,-0.9559,-0.9458,-0.9354,-0.9395,-0.9252,-0.9206,-0.9089,-0.9053,-0.8943,-0.9016,-0.8951,-0.8935,-0.8919,-0.89,-0.9367,-0.8925,-0.8926,-0.8928,-0.8929,-0.893,0,-1.0368,-1.0394,-1.0296,-1.0205,-1.0124,-1.0054,-0.9992,-0.9927,-0.9983,-0.9895,-0.977,-0.9701,-0.9563,-0.9447,-0.9353,-0.9328,-0.9408,-0.9416,-0.9372,-0.9352,-0.935,-0.9354,-0.9935,-0.9428,-0.9432,-0.9435,-0.9438,-0.9439,-1.0845,-1.0706,-1.0674,-1.0602,-1.0573,-1.0454,-1.0388,-1.0447,-1.0373,-1.0303,-1.0198,-1.0082,-0.9992,-0.9784,-0.9783,-0.9678,-0.9716,-0.9522,-0.97,-0.9689,-0.9717,-0.9726,-0.9715,-0.9485,-0.9479,-0.9475,-0.9471,0,-1.1112,-1.1145,-1.0936,-1.0915,-1.0906,-1.0757,-1.0739,-1.0625,-1.0638,-1.0482,-1.0449,-1.0467,-1.0341,-1.0372,-1.023,-1.025,-1.0009,-1.0047,-1.003,-1.004,-0.9871,-0.9888,-0.9311,-0.9241,-0.9753,-0.9748,-0.9744,0,-1.1531,-1.1345,-1.1406,-1.1283,-1.1081,-1.1145,-1.0942,-1.0933,-1.0892,-1.077,-1.0867,-1.075,-1.0807,-1.0694,-1.0722,-1.053,-1.0501,-1.0506,-1.0516,-1.0498,-1.0498,-1.0458,-1.0483,-1.0539,-1.0541,-1.0544,-1.0546,0,-1.1947,-1.1759,-1.156,-1.1521,-1.1476,-1.1381,-1.1357,-1.1311,-1.1242,-1.1158,-1.1114,-1.1009,-1.0951,-1.0869,-1.0907,-1.1027,-1.067,-1.0844,-1.0675,-1.0674,-1.0594,-1.0598,-1.0081,-1.055,-1.0551,-1.0552,-1.0553,0,-1.229,-1.2206,-1.191,-1.1877,-1.1824,-1.169,-1.1595,-1.1487,-1.143,-1.144,-1.1373,-1.1439,-1.127,-1.1442,-1.1211,-1.1359,-1.1297,-1.1285,-1.1273,-1.126,-1.1451,-1.1158,-1.066,-1.0611,-1.125,-1.1256,-1.1261,0,-1.2761,-1.2468,-1.2522,-1.2236,-1.2106,-1.2228,-1.2079,-1.2025,-1.2026,-1.1915,-1.1916,-1.1785,-1.1919,-1.1882,-1.1764,-1.1758,-1.1566,-1.1784,-1.1623,-1.1616,-1.1639,-1.1181,-1.1101,-1.0766,-1.1335,-1.1327,-1.1322,0,-1.3128,-1.3075,-1.3019,-1.298,-1.2918,-1.2806,-1.2635,-1.2521,-1.2446,-1.237,-1.2229,-1.2043,-1.2139,-1.2074,-1.2115,-1.199,-1.1698,-1.2107,-1.2106,-1.2035,-1.1373,-1.1299,-1.1243,-1.1753,-1.1744,-1.1737,-1.1381,0,-1.3647,-1.3502,-1.3354,-1.3257,-1.3175,-1.2995,-1.3029,-1.294,-1.2991,-1.2995,-1.2784,-1.274,-1.2619,-1.256,-1.2604,-1.2307,-1.2362,-1.2461,-1.2629,-1.2327,-1.2211,-1.2163,-1.2801,-1.2806,-1.2811,-1.2814,0,0,-1.409,-1.3883,-1.3943,-1.3779,-1.3715,-1.384,-1.3645,-1.3595,-1.3489,-1.3442,-1.3537,-1.3267,-1.3225,-1.2965,-1.2873,-1.2821,-1.2772,-1.2873,-1.247,-1.2431,-1.2396,-1.2271,-1.2221,-1.2822,-1.2823,-1.2825,-1.2826,0,-1.4287,-1.4247,-1.4054,-1.4007,-1.3939,-1.3953,-1.3906,-1.3859,-1.3852,-1.3643,-1.3746,-1.3622,-1.3399,-1.3345,-1.3288,-1.2907,-1.299,-1.2866,-1.2654,-1.2512,-1.2468,-1.2429,-1.2297,-1.2249,-1.2837,-1.2836,-1.2836,0,-1.4657,-1.4625,-1.4534,-1.4391,-1.4345,-1.4204,-1.4391,-1.4231,-1.4127,-1.4264,-1.4055,-1.4033,-1.3959,-1.3706,-1.3593,-1.3675,-1.3187,-1.3343,-1.3316,-1.3304,-1.3168,-1.3115,-1.3067,-1.3692,-1.3694,-1.3697,0,0,-1.4822,-1.4686,-1.4667,-1.4435,-1.44,-1.4416,-1.4342,-1.4385,-1.4318,-1.429,-1.4263,-1.4193,-1.4067,-1.398,-1.3862,-1.3578,-1.3569,-1.3447,-1.3407,-1.3374,-1.3343,-1.3198,-1.3146,-1.3708,-1.3708,-1.3709,0,0,-1.4899,-1.4869,-1.4933,-1.4668,-1.4604,-1.4565,-1.4422,-1.4497,-1.4394,-1.4418,-1.4476,-1.4459,-1.4223,-1.4195,-1.4339,-1.3922,-1.4087,-1.4053,-1.3948,-1.3898,-1.3858,-1.387,-1.4519,0,0,0,0,0,-1.5117,-1.4875,-1.4933,-1.4893,-1.4707,-1.4534,-1.4511,-1.4556,-1.4676,-1.4562,-1.4552,-1.4644,-1.4287,-1.4415,-1.4373,-1.4211,-1.3849,-1.3824,-1.38,-1.3599,-1.3545,-1.3501,0,0,0,0,0,0,-1.5102,-1.5053,-1.4939,-1.489,-1.4849,-1.4544,-1.4756,-1.4762,-1.4689,-1.4711,-1.4644,-1.4642,-1.4675,-1.4439,-1.4401,-1.4247,-1.4533,-1.3839,-1.3818,-1.3799,-1.358,-1.3537,-1.35,0,0,0,0,0,-1.509,-1.5051,-1.4742,-1.4894,-1.4858,-1.4862,-1.4765,-1.4772,-1.4716,-1.4698,-1.47,-1.4757,-1.4669,-1.464,-1.4417,-1.4263,-1.456,-1.4545,-1.3825,-1.3808,-1.3793,-1.3559,0,0,0,0,0,0,-1.5081,-1.5055,-1.4736,-1.4727,-1.4989,-1.488,-1.4865,-1.478,-1.471,-1.4709,-1.4816,-1.4834,-1.4662,-1.4641,-1.4617,-1.4267,-1.4582,-1.4567,-1.4558,-1.3812,-1.3799,-1.3788,0,0,0,0,0,0,-1.5076,-1.5046,-1.4731,-1.4848,-1.4853,-1.4896,-1.4882,-1.4697,-1.4707,-1.4832,-1.4844,-1.4825,-1.4696,-1.464,-1.4622,-1.4331,-1.4599,-1.4585,-1.4575,-1.4568,-1.3802,-1.3791,0,0,0,0,0,0,-1.5064,-1.5038,-1.4851,-1.4854,-1.4859,-1.4758,-1.4733,-1.4539,-1.4812,-1.4832,-1.4837,-1.4849,-1.4692,-1.4676,-1.4625,-1.434,-1.4333,-1.4598,-1.4589,-1.4582,-1.4577,0,0,0,0,0,0,0,-1.5054,-1.5217,-1.4791,-1.4859,-1.4864,-1.4641,-1.4638,-1.4636,-1.4814,-1.4824,-1.4834,-1.4844,-1.468,-1.4664,-1.4648,-1.4348,0,0,-1.46,-1.4593,0,0,0,0,0,0,0,0,-1.5229,-1.522,-1.4791,-1.4789,-1.4787,-1.4641,-1.4639,-1.4636,-1.4816,-1.4824,-1.4832,-1.484,-1.4676,-1.4663,-1.465,0,0,0,0,0,0,0,0,0,0,0,0,0,0,0,-1.4791,-1.4789,0,-1.464,-1.4639,-1.4637,-1.4817,-1.4824,-1.483,-1.4837,-1.4672,-1.4662,-1.4651,0,0,0,0,0,0,0,0,0,0,0,0,0,0,0,0,0,0,0,0,0,0,0,0,0,0,0,0,0,0,0,0,0,0,0,0,0,0,0,0,0,0,0,0,0,0,0,0,0,0,0,0,0,0,0,0,0,0,0,0,0,0,0,0,0,0,0,0,0]}]]]